Year,Month,Day,Hour,Minute,Value (Times are PST for insolation in W/m^2)
2015,03,30,00,00,0.00
2015,03,30,00,01,0.00
2015,03,30,00,02,0.00
2015,03,30,00,03,0.00
2015,03,30,00,04,0.00
2015,03,30,00,05,0.00
2015,03,30,00,06,0.00
2015,03,30,00,07,0.00
2015,03,30,00,08,0.00
2015,03,30,00,09,0.00
2015,03,30,00,10,0.00
2015,03,30,00,11,0.00
2015,03,30,00,12,0.00
2015,03,30,00,13,0.00
2015,03,30,00,14,0.00
2015,03,30,00,15,0.00
2015,03,30,00,16,0.00
2015,03,30,00,17,0.00
2015,03,30,00,18,0.00
2015,03,30,00,19,0.00
2015,03,30,00,20,0.00
2015,03,30,00,21,0.00
2015,03,30,00,22,0.00
2015,03,30,00,23,0.00
2015,03,30,00,24,0.00
2015,03,30,00,25,0.00
2015,03,30,00,26,0.00
2015,03,30,00,27,0.00
2015,03,30,00,28,0.00
2015,03,30,00,29,0.00
2015,03,30,00,30,0.00
2015,03,30,00,31,0.00
2015,03,30,00,32,0.00
2015,03,30,00,33,0.00
2015,03,30,00,34,0.00
2015,03,30,00,35,0.00
2015,03,30,00,36,0.00
2015,03,30,00,37,0.00
2015,03,30,00,38,0.00
2015,03,30,00,39,0.00
2015,03,30,00,40,0.00
2015,03,30,00,41,0.00
2015,03,30,00,42,0.00
2015,03,30,00,43,0.00
2015,03,30,00,44,0.00
2015,03,30,00,45,0.00
2015,03,30,00,46,0.00
2015,03,30,00,47,0.00
2015,03,30,00,48,0.00
2015,03,30,00,49,0.00
2015,03,30,00,50,0.00
2015,03,30,00,51,0.00
2015,03,30,00,52,0.00
2015,03,30,00,53,0.00
2015,03,30,00,54,0.00
2015,03,30,00,55,0.00
2015,03,30,00,56,0.00
2015,03,30,00,57,0.00
2015,03,30,00,58,0.00
2015,03,30,00,59,0.00
2015,03,30,01,00,0.00
2015,03,30,01,01,0.00
2015,03,30,01,02,0.00
2015,03,30,01,03,0.00
2015,03,30,01,04,0.00
2015,03,30,01,05,0.00
2015,03,30,01,06,0.00
2015,03,30,01,07,0.00
2015,03,30,01,08,0.00
2015,03,30,01,09,0.00
2015,03,30,01,10,0.00
2015,03,30,01,11,0.00
2015,03,30,01,12,0.00
2015,03,30,01,13,0.00
2015,03,30,01,14,0.00
2015,03,30,01,15,0.00
2015,03,30,01,16,0.00
2015,03,30,01,17,0.00
2015,03,30,01,18,0.00
2015,03,30,01,19,0.00
2015,03,30,01,20,0.00
2015,03,30,01,21,0.00
2015,03,30,01,22,0.00
2015,03,30,01,23,0.00
2015,03,30,01,24,0.00
2015,03,30,01,25,0.00
2015,03,30,01,26,0.00
2015,03,30,01,27,0.00
2015,03,30,01,28,0.00
2015,03,30,01,29,0.00
2015,03,30,01,30,0.00
2015,03,30,01,31,0.00
2015,03,30,01,32,0.00
2015,03,30,01,33,0.00
2015,03,30,01,34,0.00
2015,03,30,01,35,0.00
2015,03,30,01,36,0.00
2015,03,30,01,37,0.00
2015,03,30,01,38,0.00
2015,03,30,01,39,0.00
2015,03,30,01,40,0.00
2015,03,30,01,41,0.00
2015,03,30,01,42,0.00
2015,03,30,01,43,0.00
2015,03,30,01,44,0.00
2015,03,30,01,45,0.00
2015,03,30,01,46,0.00
2015,03,30,01,47,0.00
2015,03,30,01,48,0.00
2015,03,30,01,49,0.00
2015,03,30,01,50,0.00
2015,03,30,01,51,0.00
2015,03,30,01,52,0.00
2015,03,30,01,53,0.00
2015,03,30,01,54,0.00
2015,03,30,01,55,0.00
2015,03,30,01,56,0.00
2015,03,30,01,57,0.00
2015,03,30,01,58,0.00
2015,03,30,01,59,0.00
2015,03,30,02,00,0.00
2015,03,30,02,01,0.00
2015,03,30,02,02,0.00
2015,03,30,02,03,0.00
2015,03,30,02,04,0.00
2015,03,30,02,05,0.00
2015,03,30,02,06,0.00
2015,03,30,02,07,0.00
2015,03,30,02,08,0.00
2015,03,30,02,09,0.00
2015,03,30,02,10,0.00
2015,03,30,02,11,0.00
2015,03,30,02,12,0.00
2015,03,30,02,13,0.00
2015,03,30,02,14,0.00
2015,03,30,02,15,0.00
2015,03,30,02,16,0.00
2015,03,30,02,17,0.00
2015,03,30,02,18,0.00
2015,03,30,02,19,0.00
2015,03,30,02,20,0.00
2015,03,30,02,21,0.00
2015,03,30,02,22,0.00
2015,03,30,02,23,0.00
2015,03,30,02,24,0.00
2015,03,30,02,25,0.00
2015,03,30,02,26,0.00
2015,03,30,02,27,0.00
2015,03,30,02,28,0.00
2015,03,30,02,29,0.00
2015,03,30,02,30,0.00
2015,03,30,02,31,0.00
2015,03,30,02,32,0.00
2015,03,30,02,33,0.00
2015,03,30,02,34,0.00
2015,03,30,02,35,0.00
2015,03,30,02,36,0.00
2015,03,30,02,37,0.00
2015,03,30,02,38,0.00
2015,03,30,02,39,0.00
2015,03,30,02,40,0.00
2015,03,30,02,41,0.00
2015,03,30,02,42,0.00
2015,03,30,02,43,0.00
2015,03,30,02,44,0.00
2015,03,30,02,45,0.00
2015,03,30,02,46,0.00
2015,03,30,02,47,0.00
2015,03,30,02,48,0.00
2015,03,30,02,49,0.00
2015,03,30,02,50,0.00
2015,03,30,02,51,0.00
2015,03,30,02,52,0.00
2015,03,30,02,53,0.00
2015,03,30,02,54,0.00
2015,03,30,02,55,0.00
2015,03,30,02,56,0.00
2015,03,30,02,57,0.00
2015,03,30,02,58,0.00
2015,03,30,02,59,0.00
2015,03,30,03,00,0.00
2015,03,30,03,01,0.00
2015,03,30,03,02,0.00
2015,03,30,03,03,0.00
2015,03,30,03,04,0.00
2015,03,30,03,05,0.00
2015,03,30,03,06,0.00
2015,03,30,03,07,0.00
2015,03,30,03,08,0.00
2015,03,30,03,09,0.00
2015,03,30,03,10,0.00
2015,03,30,03,11,0.00
2015,03,30,03,12,0.00
2015,03,30,03,13,0.00
2015,03,30,03,14,0.00
2015,03,30,03,15,0.00
2015,03,30,03,16,0.00
2015,03,30,03,17,0.00
2015,03,30,03,18,0.00
2015,03,30,03,19,0.00
2015,03,30,03,20,0.00
2015,03,30,03,21,0.00
2015,03,30,03,22,0.00
2015,03,30,03,23,0.00
2015,03,30,03,24,0.00
2015,03,30,03,25,0.00
2015,03,30,03,26,0.00
2015,03,30,03,27,0.00
2015,03,30,03,28,0.00
2015,03,30,03,29,0.00
2015,03,30,03,30,0.00
2015,03,30,03,31,0.00
2015,03,30,03,32,0.00
2015,03,30,03,33,0.00
2015,03,30,03,34,0.00
2015,03,30,03,35,0.00
2015,03,30,03,36,0.00
2015,03,30,03,37,0.00
2015,03,30,03,38,0.00
2015,03,30,03,39,0.00
2015,03,30,03,40,0.00
2015,03,30,03,41,0.00
2015,03,30,03,42,0.00
2015,03,30,03,43,0.00
2015,03,30,03,44,0.00
2015,03,30,03,45,0.00
2015,03,30,03,46,0.00
2015,03,30,03,47,0.00
2015,03,30,03,48,0.00
2015,03,30,03,49,0.00
2015,03,30,03,50,0.00
2015,03,30,03,51,0.00
2015,03,30,03,52,0.00
2015,03,30,03,53,0.00
2015,03,30,03,54,0.00
2015,03,30,03,55,0.00
2015,03,30,03,56,0.00
2015,03,30,03,57,0.00
2015,03,30,03,58,0.00
2015,03,30,03,59,0.00
2015,03,30,04,00,0.00
2015,03,30,04,01,0.00
2015,03,30,04,02,0.00
2015,03,30,04,03,0.00
2015,03,30,04,04,0.00
2015,03,30,04,05,0.00
2015,03,30,04,06,0.00
2015,03,30,04,07,0.00
2015,03,30,04,08,0.00
2015,03,30,04,09,0.00
2015,03,30,04,10,0.00
2015,03,30,04,11,0.00
2015,03,30,04,12,0.00
2015,03,30,04,13,0.00
2015,03,30,04,14,0.00
2015,03,30,04,15,0.00
2015,03,30,04,16,0.00
2015,03,30,04,17,0.00
2015,03,30,04,18,0.00
2015,03,30,04,19,0.00
2015,03,30,04,20,0.00
2015,03,30,04,21,0.00
2015,03,30,04,22,0.00
2015,03,30,04,23,0.00
2015,03,30,04,24,0.00
2015,03,30,04,25,0.00
2015,03,30,04,26,0.00
2015,03,30,04,27,0.00
2015,03,30,04,28,0.00
2015,03,30,04,29,0.00
2015,03,30,04,30,0.00
2015,03,30,04,31,0.00
2015,03,30,04,32,0.00
2015,03,30,04,33,0.00
2015,03,30,04,34,0.00
2015,03,30,04,35,0.00
2015,03,30,04,36,0.00
2015,03,30,04,37,0.00
2015,03,30,04,38,0.00
2015,03,30,04,39,0.00
2015,03,30,04,40,0.00
2015,03,30,04,41,0.00
2015,03,30,04,42,0.00
2015,03,30,04,43,0.00
2015,03,30,04,44,0.00
2015,03,30,04,45,0.00
2015,03,30,04,46,0.00
2015,03,30,04,47,0.00
2015,03,30,04,48,0.00
2015,03,30,04,49,0.00
2015,03,30,04,50,0.00
2015,03,30,04,51,0.00
2015,03,30,04,52,0.00
2015,03,30,04,53,0.00
2015,03,30,04,54,0.00
2015,03,30,04,55,0.00
2015,03,30,04,56,0.00
2015,03,30,04,57,0.00
2015,03,30,04,58,0.00
2015,03,30,04,59,0.00
2015,03,30,05,00,0.00
2015,03,30,05,01,0.00
2015,03,30,05,02,0.00
2015,03,30,05,03,0.00
2015,03,30,05,04,0.00
2015,03,30,05,05,0.00
2015,03,30,05,06,0.00
2015,03,30,05,07,0.00
2015,03,30,05,08,0.00
2015,03,30,05,09,0.00
2015,03,30,05,10,0.00
2015,03,30,05,11,0.00
2015,03,30,05,12,0.00
2015,03,30,05,13,0.00
2015,03,30,05,14,0.00
2015,03,30,05,15,0.00
2015,03,30,05,16,0.00
2015,03,30,05,17,0.00
2015,03,30,05,18,0.00
2015,03,30,05,19,0.00
2015,03,30,05,20,0.00
2015,03,30,05,21,0.00
2015,03,30,05,22,0.00
2015,03,30,05,23,0.00
2015,03,30,05,24,0.00
2015,03,30,05,25,0.00
2015,03,30,05,26,0.00
2015,03,30,05,27,0.00
2015,03,30,05,28,0.00
2015,03,30,05,29,0.00
2015,03,30,05,30,0.00
2015,03,30,05,31,0.00
2015,03,30,05,32,0.00
2015,03,30,05,33,0.00
2015,03,30,05,34,0.00
2015,03,30,05,35,0.00
2015,03,30,05,36,0.00
2015,03,30,05,37,0.00
2015,03,30,05,38,0.00
2015,03,30,05,39,0.00
2015,03,30,05,40,0.00
2015,03,30,05,41,0.00
2015,03,30,05,42,0.00
2015,03,30,05,43,0.00
2015,03,30,05,44,0.00
2015,03,30,05,45,0.00
2015,03,30,05,46,0.00
2015,03,30,05,47,0.00
2015,03,30,05,48,0.00
2015,03,30,05,49,0.00
2015,03,30,05,50,0.00
2015,03,30,05,51,0.00
2015,03,30,05,52,0.00
2015,03,30,05,53,0.00
2015,03,30,05,54,0.00
2015,03,30,05,55,0.00
2015,03,30,05,56,0.00
2015,03,30,05,57,0.00
2015,03,30,05,58,0.00
2015,03,30,05,59,0.00
2015,03,30,06,00,0.00
2015,03,30,06,01,0.00
2015,03,30,06,02,0.00
2015,03,30,06,03,0.00
2015,03,30,06,04,0.00
2015,03,30,06,05,0.00
2015,03,30,06,06,0.00
2015,03,30,06,07,0.00
2015,03,30,06,08,0.00
2015,03,30,06,09,0.00
2015,03,30,06,10,0.00
2015,03,30,06,11,0.00
2015,03,30,06,12,0.00
2015,03,30,06,13,0.00
2015,03,30,06,14,0.00
2015,03,30,06,15,0.00
2015,03,30,06,16,0.00
2015,03,30,06,17,0.00
2015,03,30,06,18,0.00
2015,03,30,06,19,0.00
2015,03,30,06,20,0.00
2015,03,30,06,21,0.00
2015,03,30,06,22,0.00
2015,03,30,06,23,0.00
2015,03,30,06,24,0.00
2015,03,30,06,25,0.00
2015,03,30,06,26,0.00
2015,03,30,06,27,0.00
2015,03,30,06,28,0.00
2015,03,30,06,29,0.00
2015,03,30,06,30,0.00
2015,03,30,06,31,0.00
2015,03,30,06,32,0.00
2015,03,30,06,33,0.00
2015,03,30,06,34,0.00
2015,03,30,06,35,0.00
2015,03,30,06,36,0.00
2015,03,30,06,37,0.00
2015,03,30,06,38,0.00
2015,03,30,06,39,0.00
2015,03,30,06,40,0.00
2015,03,30,06,41,0.00
2015,03,30,06,42,0.00
2015,03,30,06,43,0.00
2015,03,30,06,44,0.00
2015,03,30,06,45,0.00
2015,03,30,06,46,0.00
2015,03,30,06,47,0.00
2015,03,30,06,48,0.00
2015,03,30,06,49,0.00
2015,03,30,06,50,0.00
2015,03,30,06,51,0.00
2015,03,30,06,52,0.00
2015,03,30,06,53,0.00
2015,03,30,06,54,0.00
2015,03,30,06,55,0.00
2015,03,30,06,56,0.00
2015,03,30,06,57,0.00
2015,03,30,06,58,0.00
2015,03,30,06,59,0.00
2015,03,30,07,00,0.00
2015,03,30,07,01,0.00
2015,03,30,07,02,0.00
2015,03,30,07,03,0.00
2015,03,30,07,04,0.00
2015,03,30,07,05,0.00
2015,03,30,07,06,0.00
2015,03,30,07,07,0.00
2015,03,30,07,08,0.00
2015,03,30,07,09,0.00
2015,03,30,07,10,0.00
2015,03,30,07,11,0.00
2015,03,30,07,12,0.00
2015,03,30,07,13,0.00
2015,03,30,07,14,0.00
2015,03,30,07,15,0.00
2015,03,30,07,16,0.00
2015,03,30,07,17,0.00
2015,03,30,07,18,0.00
2015,03,30,07,19,0.00
2015,03,30,07,20,0.00
2015,03,30,07,21,0.00
2015,03,30,07,22,0.00
2015,03,30,07,23,0.00
2015,03,30,07,24,0.00
2015,03,30,07,25,0.00
2015,03,30,07,26,0.00
2015,03,30,07,27,0.00
2015,03,30,07,28,0.00
2015,03,30,07,29,0.00
2015,03,30,07,30,0.00
2015,03,30,07,31,0.00
2015,03,30,07,32,0.00
2015,03,30,07,33,0.00
2015,03,30,07,34,0.00
2015,03,30,07,35,0.00
2015,03,30,07,36,0.00
2015,03,30,07,37,0.00
2015,03,30,07,38,0.00
2015,03,30,07,39,0.00
2015,03,30,07,40,0.00
2015,03,30,07,41,0.00
2015,03,30,07,42,0.00
2015,03,30,07,43,0.00
2015,03,30,07,44,0.00
2015,03,30,07,45,0.00
2015,03,30,07,46,0.00
2015,03,30,07,47,0.00
2015,03,30,07,48,0.00
2015,03,30,07,49,0.00
2015,03,30,07,50,2.00
2015,03,30,07,51,5.00
2015,03,30,07,52,5.00
2015,03,30,07,53,5.00
2015,03,30,07,54,5.00
2015,03,30,07,55,5.00
2015,03,30,07,56,6.80
2015,03,30,07,57,7.00
2015,03,30,07,58,7.00
2015,03,30,07,59,7.00
2015,03,30,08,00,7.00
2015,03,30,08,01,7.00
2015,03,30,08,02,8.00
2015,03,30,08,03,7.90
2015,03,30,08,04,7.00
2015,03,30,08,05,8.50
2015,03,30,08,06,9.00
2015,03,30,08,07,9.00
2015,03,30,08,08,9.10
2015,03,30,08,09,11.10
2015,03,30,08,10,12.40
2015,03,30,08,11,14.60
2015,03,30,08,12,16.00
2015,03,30,08,13,16.00
2015,03,30,08,14,16.00
2015,03,30,08,15,17.30
2015,03,30,08,16,18.70
2015,03,30,08,17,20.60
2015,03,30,08,18,24.60
2015,03,30,08,19,26.00
2015,03,30,08,20,26.40
2015,03,30,08,21,30.70
2015,03,30,08,22,32.70
2015,03,30,08,23,29.80
2015,03,30,08,24,26.00
2015,03,30,08,25,26.00
2015,03,30,08,26,22.70
2015,03,30,08,27,21.00
2015,03,30,08,28,18.60
2015,03,30,08,29,18.00
2015,03,30,08,30,18.00
2015,03,30,08,31,18.10
2015,03,30,08,32,19.90
2015,03,30,08,33,23.60
2015,03,30,08,34,27.90
2015,03,30,08,35,33.40
2015,03,30,08,36,37.80
2015,03,30,08,37,40.00
2015,03,30,08,38,42.80
2015,03,30,08,39,44.00
2015,03,30,08,40,42.20
2015,03,30,08,41,37.00
2015,03,30,08,42,36.40
2015,03,30,08,43,33.40
2015,03,30,08,44,35.00
2015,03,30,08,45,37.00
2015,03,30,08,46,41.80
2015,03,30,08,47,44.00
2015,03,30,08,48,47.10
2015,03,30,08,49,51.80
2015,03,30,08,50,53.80
2015,03,30,08,51,46.90
2015,03,30,08,52,40.00
2015,03,30,08,53,36.40
2015,03,30,08,54,33.00
2015,03,30,08,55,30.60
2015,03,30,08,56,25.00
2015,03,30,08,57,24.00
2015,03,30,08,58,24.10
2015,03,30,08,59,25.00
2015,03,30,09,00,25.00
2015,03,30,09,01,29.10
2015,03,30,09,02,28.20
2015,03,30,09,03,26.10
2015,03,30,09,04,26.90
2015,03,30,09,05,33.10
2015,03,30,09,06,37.00
2015,03,30,09,07,37.00
2015,03,30,09,08,35.10
2015,03,30,09,09,30.20
2015,03,30,09,10,26.70
2015,03,30,09,11,27.50
2015,03,30,09,12,31.30
2015,03,30,09,13,38.20
2015,03,30,09,14,46.90
2015,03,30,09,15,58.60
2015,03,30,09,16,66.20
2015,03,30,09,17,83.70
2015,03,30,09,18,92.60
2015,03,30,09,19,97.50
2015,03,30,09,20,86.30
2015,03,30,09,21,78.30
2015,03,30,09,22,65.60
2015,03,30,09,23,60.00
2015,03,30,09,24,60.00
2015,03,30,09,25,40.90
2015,03,30,09,26,45.00
2015,03,30,09,27,52.10
2015,03,30,09,28,57.80
2015,03,30,09,29,62.00
2015,03,30,09,30,59.10
2015,03,30,09,31,50.40
2015,03,30,09,32,44.70
2015,03,30,09,33,45.40
2015,03,30,09,34,46.80
2015,03,30,09,35,44.30
2015,03,30,09,36,39.20
2015,03,30,09,37,39.10
2015,03,30,09,38,40.00
2015,03,30,09,39,40.60
2015,03,30,09,40,42.70
2015,03,30,09,41,48.80
2015,03,30,09,42,57.30
2015,03,30,09,43,67.60
2015,03,30,09,44,89.60
2015,03,30,09,45,103.50
2015,03,30,09,46,89.90
2015,03,30,09,47,75.60
2015,03,30,09,48,64.00
2015,03,30,09,49,59.10
2015,03,30,09,50,65.10
2015,03,30,09,51,83.00
2015,03,30,09,52,126.20
2015,03,30,09,53,146.20
2015,03,30,09,54,132.00
2015,03,30,09,55,113.10
2015,03,30,09,56,114.70
2015,03,30,09,57,130.20
2015,03,30,09,58,135.00
2015,03,30,09,59,88.80
2015,03,30,10,00,104.00
2015,03,30,10,01,134.20
2015,03,30,10,02,125.00
2015,03,30,10,03,129.30
2015,03,30,10,04,136.00
2015,03,30,10,05,121.90
2015,03,30,10,06,106.10
2015,03,30,10,07,96.30
2015,03,30,10,08,85.30
2015,03,30,10,09,70.60
2015,03,30,10,10,72.40
2015,03,30,10,11,82.90
2015,03,30,10,12,100.20
2015,03,30,10,13,84.00
2015,03,30,10,14,88.30
2015,03,30,10,15,97.80
2015,03,30,10,16,107.70
2015,03,30,10,17,101.10
2015,03,30,10,18,91.30
2015,03,30,10,19,103.30
2015,03,30,10,20,97.70
2015,03,30,10,21,102.00
2015,03,30,10,22,104.40
2015,03,30,10,23,110.30
2015,03,30,10,24,106.60
2015,03,30,10,25,102.30
2015,03,30,10,26,90.00
2015,03,30,10,27,90.70
2015,03,30,10,28,96.70
2015,03,30,10,29,110.20
2015,03,30,10,30,105.00
2015,03,30,10,31,150.00
2015,03,30,10,32,177.10
2015,03,30,10,33,217.60
2015,03,30,10,34,215.40
2015,03,30,10,35,212.10
2015,03,30,10,36,230.30
2015,03,30,10,37,280.30
2015,03,30,10,38,292.60
2015,03,30,10,39,275.70
2015,03,30,10,40,251.60
2015,03,30,10,41,268.20
2015,03,30,10,42,278.30
2015,03,30,10,43,469.00
2015,03,30,10,44,469.00
2015,03,30,10,45,469.00
2015,03,30,10,46,533.10
2015,03,30,10,47,642.00
2015,03,30,10,48,487.60
2015,03,30,10,49,364.00
2015,03,30,10,50,376.60
2015,03,30,10,51,331.30
2015,03,30,10,52,392.00
2015,03,30,10,53,401.00
2015,03,30,10,54,409.10
2015,03,30,10,55,469.10
2015,03,30,10,56,457.10
2015,03,30,10,57,448.00
2015,03,30,10,58,454.50
2015,03,30,10,59,505.30
2015,03,30,11,00,476.70
2015,03,30,11,01,388.70
2015,03,30,11,02,369.00
2015,03,30,11,03,369.00
2015,03,30,11,04,369.00
2015,03,30,11,05,357.50
2015,03,30,11,06,269.00
2015,03,30,11,07,240.90
2015,03,30,11,08,184.40
2015,03,30,11,09,220.70
2015,03,30,11,10,260.60
2015,03,30,11,11,287.60
2015,03,30,11,12,314.50
2015,03,30,11,13,331.80
2015,03,30,11,14,354.40
2015,03,30,11,15,331.70
2015,03,30,11,16,358.70
2015,03,30,11,17,414.60
2015,03,30,11,18,476.00
2015,03,30,11,19,431.20
2015,03,30,11,20,395.40
2015,03,30,11,21,402.60
2015,03,30,11,22,383.00
2015,03,30,11,23,437.10
2015,03,30,11,24,444.60
2015,03,30,11,25,441.00
2015,03,30,11,26,441.00
2015,03,30,11,27,441.00
2015,03,30,11,28,417.70
2015,03,30,11,29,317.10
2015,03,30,11,30,343.50
2015,03,30,11,31,380.00
2015,03,30,11,32,380.00
2015,03,30,11,33,368.70
2015,03,30,11,34,362.00
2015,03,30,11,35,362.00
2015,03,30,11,36,376.20
2015,03,30,11,37,400.10
2015,03,30,11,38,401.00
2015,03,30,11,39,412.30
2015,03,30,11,40,452.00
2015,03,30,11,41,452.00
2015,03,30,11,42,437.80
2015,03,30,11,43,420.00
2015,03,30,11,44,420.00
2015,03,30,11,45,406.60
2015,03,30,11,46,363.50
2015,03,30,11,47,355.00
2015,03,30,11,48,360.70
2015,03,30,11,49,429.80
2015,03,30,11,50,416.60
2015,03,30,11,51,415.00
2015,03,30,11,52,415.00
2015,03,30,11,53,415.00
2015,03,30,11,54,415.00
2015,03,30,11,55,415.00
2015,03,30,11,56,516.30
2015,03,30,11,57,559.00
2015,03,30,11,58,559.00
2015,03,30,11,59,932.60
2015,03,30,12,00,874.00
2015,03,30,12,01,796.90
2015,03,30,12,02,475.10
2015,03,30,12,03,485.20
2015,03,30,12,04,500.20
2015,03,30,12,05,544.10
2015,03,30,12,06,551.00
2015,03,30,12,07,493.60
2015,03,30,12,08,491.00
2015,03,30,12,09,494.00
2015,03,30,12,10,476.20
2015,03,30,12,11,461.70
2015,03,30,12,12,459.00
2015,03,30,12,13,446.60
2015,03,30,12,14,432.60
2015,03,30,12,15,470.60
2015,03,30,12,16,474.70
2015,03,30,12,17,506.40
2015,03,30,12,18,508.30
2015,03,30,12,19,444.00
2015,03,30,12,20,374.40
2015,03,30,12,21,407.00
2015,03,30,12,22,420.00
2015,03,30,12,23,403.80
2015,03,30,12,24,403.00
2015,03,30,12,25,395.30
2015,03,30,12,26,383.00
2015,03,30,12,27,357.60
2015,03,30,12,28,335.30
2015,03,30,12,29,344.40
2015,03,30,12,30,348.00
2015,03,30,12,31,348.00
2015,03,30,12,32,361.10
2015,03,30,12,33,403.00
2015,03,30,12,34,403.00
2015,03,30,12,35,403.00
2015,03,30,12,36,441.10
2015,03,30,12,37,524.80
2015,03,30,12,38,555.00
2015,03,30,12,39,613.40
2015,03,30,12,40,643.00
2015,03,30,12,41,670.70
2015,03,30,12,42,739.20
2015,03,30,12,43,733.50
2015,03,30,12,44,733.00
2015,03,30,12,45,653.00
2015,03,30,12,46,373.00
2015,03,30,12,47,451.10
2015,03,30,12,48,584.00
2015,03,30,12,49,645.10
2015,03,30,12,50,639.90
2015,03,30,12,51,615.70
2015,03,30,12,52,574.20
2015,03,30,12,53,503.60
2015,03,30,12,54,539.50
2015,03,30,12,55,572.60
2015,03,30,12,56,589.80
2015,03,30,12,57,613.40
2015,03,30,12,58,619.80
2015,03,30,12,59,614.80
2015,03,30,13,00,577.00
2015,03,30,13,01,494.50
2015,03,30,13,02,447.50
2015,03,30,13,03,511.60
2015,03,30,13,04,557.10
2015,03,30,13,05,533.40
2015,03,30,13,06,445.10
2015,03,30,13,07,469.00
2015,03,30,13,08,469.00
2015,03,30,13,09,544.40
2015,03,30,13,10,681.90
2015,03,30,13,11,712.00
2015,03,30,13,12,601.20
2015,03,30,13,13,556.70
2015,03,30,13,14,593.90
2015,03,30,13,15,578.90
2015,03,30,13,16,572.00
2015,03,30,13,17,490.70
2015,03,30,13,18,464.30
2015,03,30,13,19,442.90
2015,03,30,13,20,448.00
2015,03,30,13,21,448.00
2015,03,30,13,22,448.00
2015,03,30,13,23,448.00
2015,03,30,13,24,498.70
2015,03,30,13,25,541.00
2015,03,30,13,26,610.90
2015,03,30,13,27,556.10
2015,03,30,13,28,524.00
2015,03,30,13,29,522.10
2015,03,30,13,30,504.00
2015,03,30,13,31,503.00
2015,03,30,13,32,571.90
2015,03,30,13,33,608.00
2015,03,30,13,34,608.00
2015,03,30,13,35,684.00
2015,03,30,13,36,712.00
2015,03,30,13,37,427.50
2015,03,30,13,38,411.70
2015,03,30,13,39,413.00
2015,03,30,13,40,428.30
2015,03,30,13,41,489.70
2015,03,30,13,42,539.90
2015,03,30,13,43,594.00
2015,03,30,13,44,689.00
2015,03,30,13,45,750.50
2015,03,30,13,46,727.20
2015,03,30,13,47,678.20
2015,03,30,13,48,578.90
2015,03,30,13,49,587.40
2015,03,30,13,50,666.00
2015,03,30,13,51,662.50
2015,03,30,13,52,651.70
2015,03,30,13,53,671.50
2015,03,30,13,54,682.00
2015,03,30,13,55,630.30
2015,03,30,13,56,605.90
2015,03,30,13,57,661.30
2015,03,30,13,58,680.00
2015,03,30,13,59,680.00
2015,03,30,14,00,671.90
2015,03,30,14,01,687.00
2015,03,30,14,02,687.00
2015,03,30,14,03,688.20
2015,03,30,14,04,708.40
2015,03,30,14,05,714.40
2015,03,30,14,06,690.10
2015,03,30,14,07,649.50
2015,03,30,14,08,566.10
2015,03,30,14,09,543.00
2015,03,30,14,10,449.70
2015,03,30,14,11,498.00
2015,03,30,14,12,489.50
2015,03,30,14,13,527.00
2015,03,30,14,14,478.30
2015,03,30,14,15,334.50
2015,03,30,14,16,321.70
2015,03,30,14,17,356.40
2015,03,30,14,18,373.40
2015,03,30,14,19,367.60
2015,03,30,14,20,367.00
2015,03,30,14,21,367.00
2015,03,30,14,22,411.30
2015,03,30,14,23,464.00
2015,03,30,14,24,446.90
2015,03,30,14,25,378.10
2015,03,30,14,26,357.70
2015,03,30,14,27,360.40
2015,03,30,14,28,368.10
2015,03,30,14,29,379.30
2015,03,30,14,30,360.00
2015,03,30,14,31,339.10
2015,03,30,14,32,336.00
2015,03,30,14,33,341.00
2015,03,30,14,34,358.00
2015,03,30,14,35,397.60
2015,03,30,14,36,395.70
2015,03,30,14,37,349.50
2015,03,30,14,38,338.00
2015,03,30,14,39,338.00
2015,03,30,14,40,364.40
2015,03,30,14,41,380.00
2015,03,30,14,42,388.10
2015,03,30,14,43,390.00
2015,03,30,14,44,389.50
2015,03,30,14,45,375.70
2015,03,30,14,46,372.60
2015,03,30,14,47,373.60
2015,03,30,14,48,381.00
2015,03,30,14,49,374.80
2015,03,30,14,50,383.10
2015,03,30,14,51,396.00
2015,03,30,14,52,360.80
2015,03,30,14,53,335.10
2015,03,30,14,54,317.80
2015,03,30,14,55,310.20
2015,03,30,14,56,336.60
2015,03,30,14,57,357.90
2015,03,30,14,58,363.20
2015,03,30,14,59,371.20
2015,03,30,15,00,365.80
2015,03,30,15,01,334.10
2015,03,30,15,02,318.00
2015,03,30,15,03,312.20
2015,03,30,15,04,314.90
2015,03,30,15,05,322.20
2015,03,30,15,06,336.20
2015,03,30,15,07,354.70
2015,03,30,15,08,351.40
2015,03,30,15,09,347.20
2015,03,30,15,10,357.70
2015,03,30,15,11,367.60
2015,03,30,15,12,362.80
2015,03,30,15,13,360.00
2015,03,30,15,14,377.60
2015,03,30,15,15,386.60
2015,03,30,15,16,381.00
2015,03,30,15,17,377.90
2015,03,30,15,18,423.90
2015,03,30,15,19,473.20
2015,03,30,15,20,458.70
2015,03,30,15,21,396.90
2015,03,30,15,22,377.60
2015,03,30,15,23,353.10
2015,03,30,15,24,349.80
2015,03,30,15,25,335.80
2015,03,30,15,26,316.60
2015,03,30,15,27,305.00
2015,03,30,15,28,304.30
2015,03,30,15,29,312.60
2015,03,30,15,30,311.60
2015,03,30,15,31,331.60
2015,03,30,15,32,339.40
2015,03,30,15,33,310.40
2015,03,30,15,34,286.00
2015,03,30,15,35,267.70
2015,03,30,15,36,269.60
2015,03,30,15,37,289.10
2015,03,30,15,38,319.80
2015,03,30,15,39,315.20
2015,03,30,15,40,285.70
2015,03,30,15,41,263.40
2015,03,30,15,42,249.50
2015,03,30,15,43,247.90
2015,03,30,15,44,255.90
2015,03,30,15,45,263.10
2015,03,30,15,46,264.60
2015,03,30,15,47,262.90
2015,03,30,15,48,260.40
2015,03,30,15,49,260.00
2015,03,30,15,50,250.80
2015,03,30,15,51,235.40
2015,03,30,15,52,221.10
2015,03,30,15,53,213.00
2015,03,30,15,54,208.90
2015,03,30,15,55,201.10
2015,03,30,15,56,199.40
2015,03,30,15,57,199.00
2015,03,30,15,58,189.90
2015,03,30,15,59,179.50
2015,03,30,16,00,172.70
2015,03,30,16,01,172.00
2015,03,30,16,02,173.00
2015,03,30,16,03,181.90
2015,03,30,16,04,187.20
2015,03,30,16,05,190.70
2015,03,30,16,06,190.10
2015,03,30,16,07,185.20
2015,03,30,16,08,179.90
2015,03,30,16,09,178.00
2015,03,30,16,10,178.00
2015,03,30,16,11,184.00
2015,03,30,16,12,192.70
2015,03,30,16,13,202.60
2015,03,30,16,14,207.40
2015,03,30,16,15,208.10
2015,03,30,16,16,202.70
2015,03,30,16,17,194.80
2015,03,30,16,18,189.90
2015,03,30,16,19,189.30
2015,03,30,16,20,190.00
2015,03,30,16,21,190.00
2015,03,30,16,22,186.60
2015,03,30,16,23,179.10
2015,03,30,16,24,174.00
2015,03,30,16,25,174.40
2015,03,30,16,26,177.50
2015,03,30,16,27,181.70
2015,03,30,16,28,183.00
2015,03,30,16,29,181.90
2015,03,30,16,30,179.70
2015,03,30,16,31,180.40
2015,03,30,16,32,186.40
2015,03,30,16,33,192.30
2015,03,30,16,34,199.70
2015,03,30,16,35,207.00
2015,03,30,16,36,213.20
2015,03,30,16,37,213.10
2015,03,30,16,38,209.50
2015,03,30,16,39,205.70
2015,03,30,16,40,201.80
2015,03,30,16,41,198.10
2015,03,30,16,42,190.70
2015,03,30,16,43,177.10
2015,03,30,16,44,158.00
2015,03,30,16,45,139.20
2015,03,30,16,46,126.80
2015,03,30,16,47,126.10
2015,03,30,16,48,134.70
2015,03,30,16,49,153.00
2015,03,30,16,50,173.90
2015,03,30,16,51,187.60
2015,03,30,16,52,187.50
2015,03,30,16,53,182.50
2015,03,30,16,54,177.10
2015,03,30,16,55,174.30
2015,03,30,16,56,176.20
2015,03,30,16,57,183.80
2015,03,30,16,58,190.60
2015,03,30,16,59,194.80
2015,03,30,17,00,200.90
2015,03,30,17,01,206.20
2015,03,30,17,02,214.00
2015,03,30,17,03,226.80
2015,03,30,17,04,236.90
2015,03,30,17,05,233.60
2015,03,30,17,06,215.10
2015,03,30,17,07,192.20
2015,03,30,17,08,175.20
2015,03,30,17,09,168.10
2015,03,30,17,10,164.40
2015,03,30,17,11,161.10
2015,03,30,17,12,153.60
2015,03,30,17,13,141.90
2015,03,30,17,14,131.30
2015,03,30,17,15,122.40
2015,03,30,17,16,114.60
2015,03,30,17,17,105.90
2015,03,30,17,18,98.00
2015,03,30,17,19,90.00
2015,03,30,17,20,82.40
2015,03,30,17,21,75.50